Location: Archemont
(49.1579°N, 1.7598°E)
Time: 11:13:00
(UTC+00:00)

deb Explorer IX - Pass Details

Date: 13 April 2024
Orbit: 513 x 891 km, 38.7° (Epoch: 23 May)

Event Time Altitude Azimuth Distance (km) Brightness Sun altitude
Rises 13:48:51 0° 221° (SW) 3,516 ? 43.5°
Reaches altitude 10° 13:52:06 10° 206° (SSW) 2,566 ? 43.1°
Maximum altitude 13:56:30 21° 160° (SSE) 1,881 ? 42.6°
Drops below altitude 10° 14:00:46 10° 114° (ESE) 2,468 ? 42.2°
Sets 14:03:48 0° 98° (E) 3,344 ? 41.8°
